Regional Weather Roundup
Issued by NWS

Home | Current Version | Previous Version | Text Only | Print | Product List | Glossary Off
Versions: 1 2 3 4 5 6 7 8 9 10 11 12 13 14 15 16 17 18 19 20 21 22 23 24 25 26 27 28 29 30 31 32 33 34 35 36 37 38 39 40 41 42 43 44 45 46 47 48 49 50

000
ASUS43 KFSD 210302
RWRSD

WEATHER ROUNDUP FOR SOUTH DAKOTA
NATIONAL WEATHER SERVICE SIOUX FALLS SD
900 PM CST SAT JAN 20 2018

NOTE: "FAIR" INDICATES FEW OR NO CLOUDS BELOW 12,000 FEET WITH NO
SIGNIFICANT WEATHER AND/OR OBSTRUCTIONS TO VISIBILITY.


SDZ001>005-009-010-012>017-210400-
NORTHWEST AND NORTH CENTRAL SOUTH DAKOTA

CITY           SKY/WX    TMP DP  RH WIND       PRES   REMARKS
BUFFALO          N/A     29  23  78 NW10      29.88S WCI  20
FAITH            N/A     33  28  81 NW6       29.95S WCI  28
MOBRIDGE       CLOUDY    37  28  70 NW8       29.91F
$$

SDZ012>016-024>037-041>051-057-063-072>074-210400-
SOUTHWEST AND SOUTH CENTRAL SOUTH DAKOTA

CITY           SKY/WX    TMP DP  RH WIND       PRES   REMARKS
RAPID CTY ARPT CLOUDY    33  25  72 N6        29.96R WCI  28
PIERRE         CLOUDY    39  31  72 SE3       29.96S
CUSTER         LGT SNOW  24  20  84 NE8       29.87R VSB 1   WCI  15
ELLSWORTH AFB  CLOUDY    34  25  69 N6        29.95  WCI  29
PHILIP         LGT SNOW  32  32 100 W3        29.98S FOG
PINE RIDGE     CLOUDY    32  30  92 NE7       29.93  WCI  26
SPEARFISH        N/A     30  27  86 W5        29.96R WCI  25
WINNER         CLOUDY    37  34  89 N7        29.94F
$$

SDZ004>011-016>023-039-040-210400-
NORTHEAST SOUTH DAKOTA

CITY           SKY/WX    TMP DP  RH WIND       PRES   REMARKS
ABERDEEN       CLOUDY    34  29  82 SW5       29.95S WCI  30
WATERTOWN      CLOUDY    35  30  82 NW6       29.92S
BROOKINGS      CLOUDY    35  29  78 N5        29.93R
SISSETON         N/A     38  31  76 CALM      29.92R
$$

SDZ017-020-022-023-036>040-048>070-210400-
SOUTHEAST SOUTH DAKOTA

CITY           SKY/WX    TMP DP  RH WIND       PRES   REMARKS
SIOUX FALLS    CLOUDY    31  30  96 CALM      29.91F
HURON          CLOUDY    36  34  92 NW7       29.94S
CHAMBERLAIN    CLOUDY    38  37  97 NW5       29.95S
MITCHELL       CLOUDY    33  30  88 NW7       29.95S WCI  27
$$

ABBREVIATIONS USED IN REMARKS
   TC - TEMPERATURE IN CELSIUS
  WCI - WIND CHILL INDEX
   HX - HEAT INDEX
  VSB - VISIBILITY





USA.gov is the U.S. government's official web portal to all federal, state and local government web resources and services.